Weather in Namur

Belgium     50°28′04″N   4°52′23″E
temp.,
°C
wind,
m/s
gust,
m/s
humid.,
%
clouds,
%
prec.,
mm/h
press.,
hPa
HPBL,
m
14 may, fri
fri1423:00+7sse11765 0.0 100810
02:00+5s22875 0.0 100821
05:00+5s22925 0.0 100722
08:00+8s34875 0.0 1008195
11:00+12sw3478100 0.6 1008952
14:00+14wsw346577 1.2 10081417
17:00+14ssw447372 1.8 1008998
20:00+11ssw368621 2.9 1008239
15 may, sat
sat1523:00+7s35945 0.0 100869
02:00+6s369658 0.0 1007111
05:00+6sw4999100 0.0 1007308
08:00+8ssw4892100 0.0 1006387
11:00+9ssw478879 0.3 1005672
14:00+9ssw6891100 1.6 10041188
17:00+8ssw4894100 0.8 1003603
20:00+10wsw510880 1.1 1002630
16 may, sun
sun1623:00+6sw411944 0.0 1004255
02:00+6ssw411962 0.0 1004252
05:00+6ssw513955 0.0 1004338
08:00+8ssw61097100 0.1 1004455
11:00+9sw51094100 1.3 1004757
14:00+13wsw71068100 1.7 10031642
17:00+13wsw61076100 1.0 10021406
20:00+11sw5989100 2.4 1002409
17 may, mon
mon1723:00+9sw5139399 1.1 1003390
02:00+8sw715936 1.1 1003614
05:00+9sw8149397 0.3 1002850
08:00+8sw91495100 0.5 1003966
11:00+9sw91494100 1.5 1004888
14:00+12wsw91285100 3.3 10051234
17:00+13wsw71086100 2.3 10051169
20:00+11wsw61089100 4.1 1006498
18 may, tue
tue1823:00+9sw5119672 1.5 1008347
02:00+9wsw61197100 1.9 1009458
05:00+8w7129499 0.5 1011686
08:00+8wsw6109486 0.5 1014597
11:00+11w8107942 0.6 10161207
14:00+13w81064100 1.4 10162034
17:00+13wsw8117669 1.3 10171492
20:00+10sw4118864 2.2 1017612